[[{"header":{"parameterUnit":"m.s-1","parameterCategory":1,"la1":30.2991,"la2":30.254,"lo1":-89.0895,"lo2":-89.0444,"dx":0.0017,"dy":0.0017,"nx":28,"ny":28,"refTime":"2023-02-06T15:00:00:Z","depth":0,"parameterNumber":2,"parameterNumberName":"U-component_of_WINDS"},"data":[0,0,0,0,0,0,0,0,0,0,0,0,0,0,0,0,0,0,0,0,0,0,0,0,0,0,0,0,0,0,0,0,0,0,0,0,0,0,0,0,0,0,0,0,0,0,0,0,0,0,0,0,0,0,0,0,0,0,-1.9527,-1.9526,0,-1.9473,-1.9473,-1.9472,-1.9429,-1.9429,-1.9428,-1.9428,-1.9373,-1.9372,-1.9371,0,0,0,0,0,0,0,0,0,0,0,0,0,-1.9594,-1.9593,-1.9527,-1.9526,-1.9526,-1.9473,-1.9473,-1.9472,-1.9429,-1.9429,-1.9428,-1.9428,-1.9374,-1.9372,-1.9371,0,0,0,0,0,0,0,0,0,0,0,0,0,-1.9555,-1.9592,-1.9527,-1.9498,-1.9495,-1.9474,-1.9473,-1.9472,-1.9429,-1.9429,-1.9428,-1.9428,-1.9374,-1.9373,-1.9371,-1.9374,0,0,-1.9366,-1.9365,0,0,0,0,0,0,0,0,-1.9557,-1.9552,-1.9503,-1.95,-1.9497,-1.9457,-1.9476,-1.9439,-1.943,-1.9454,-1.9428,-1.9427,-1.9402,-1.9398,-1.9389,-1.9371,-1.9369,-1.9366,-1.9365,-1.9364,-1.9364,0,0,0,0,0,0,0,-1.956,-1.9554,-1.9506,-1.9502,-1.9498,-1.9488,-1.9482,-1.9469,-1.9432,-1.9452,-1.9449,-1.9443,-1.94,-1.9391,-1.9388,-1.9368,-1.9366,-1.9365,-1.9364,-1.9363,-1.9353,-1.9353,0,0,0,0,0,0,-1.9567,-1.9557,-1.9507,-1.9504,-1.9526,-1.9487,-1.948,-1.9471,-1.9432,-1.9426,-1.9444,-1.9441,-1.9394,-1.939,-1.9386,-1.9388,-1.9364,-1.9363,-1.9362,-1.9352,-1.9353,-1.9354,0,0,0,0,0,0,-1.9568,-1.9563,-1.951,-1.953,-1.9522,-1.9487,-1.9476,-1.947,-1.9461,-1.9426,-1.9419,-1.9441,-1.9393,-1.9388,-1.9378,-1.9386,-1.9362,-1.9361,-1.9351,-1.9352,-1.9353,-1.9393,0,0,0,0,0,0,-1.9571,-1.9564,-1.9564,-1.953,-1.9521,-1.9502,-1.9477,-1.9469,-1.9458,-1.9455,-1.9422,-1.9416,-1.9392,-1.938,-1.9376,-1.9383,-1.9359,-1.935,-1.9352,-1.9353,-1.9391,-1.9395,-1.9399,0,0,0,0,0,-1.9573,-1.9577,-1.9564,-1.9559,-1.9521,-1.9503,-1.9498,-1.9471,-1.9459,-1.946,-1.9437,-1.9417,-1.9385,-1.938,-1.9375,-1.9381,-1.935,-1.9351,-1.9353,-1.9389,-1.9394,-1.9399,0,0,0,0,0,0,-1.9612,-1.9572,-1.9557,-1.955,-1.9531,-1.9496,-1.9495,-1.9477,-1.946,-1.9457,-1.9424,-1.9417,-1.9411,-1.9395,-1.9389,-1.9383,-1.9365,-1.9366,-1.9394,-1.9399,-1.9403,-1.9408,-1.9358,0,0,0,0,0,-1.962,-1.9609,-1.9574,-1.9571,-1.9562,-1.9531,-1.9522,-1.9503,-1.9481,-1.9472,-1.9449,-1.9429,-1.9414,-1.9406,-1.939,-1.9388,-1.9381,-1.939,-1.9394,-1.9398,-1.9399,-1.9399,-1.9403,-1.9359,-1.9359,-1.9359,0,0,-1.9636,-1.9613,-1.9608,-1.9579,-1.9561,-1.9551,-1.9524,-1.9513,-1.9506,-1.947,-1.946,-1.9443,-1.9418,-1.9412,-1.9409,-1.9399,-1.941,-1.94,-1.9403,-1.9402,-1.9401,-1.9405,-1.9409,-1.936,-1.9359,-1.9359,0,0,-1.9661,-1.9641,-1.9638,-1.9621,-1.9595,-1.9574,-1.9574,-1.9542,-1.9529,-1.9518,-1.9492,-1.9483,-1.9458,-1.9442,-1.9431,-1.9451,-1.9433,-1.9447,-1.9469,-1.9469,-1.9473,-1.9476,-1.9485,-1.9488,-1.9448,-1.9448,-1.9448,0,-1.9684,-1.9667,-1.9638,-1.963,-1.9619,-1.9587,-1.9584,-1.9569,-1.9539,-1.9532,-1.9521,-1.9491,-1.9472,-1.9464,-1.9469,-1.946,-1.9459,-1.9451,-1.9475,-1.9477,-1.948,-1.9488,-1.9491,-1.945,-1.945,-1.945,-1.945,0,-1.9698,-1.9687,-1.9688,-1.9661,-1.9649,-1.9643,-1.9614,-1.9606,-1.9589,-1.9569,-1.956,-1.9536,-1.9516,-1.9512,-1.9494,-1.9502,-1.9497,-1.9481,-1.9462,-1.9487,-1.9494,-1.9497,-1.9453,-1.9453,-1.9452,-1.9452,0,0,-1.9746,-1.9704,-1.9705,-1.9693,-1.9663,-1.9654,-1.9647,-1.9628,-1.9623,-1.9604,-1.9598,-1.9579,-1.9565,-1.9552,-1.9532,-1.9532,-1.9552,-1.9516,-1.9515,-1.9525,-1.9561,-1.9575,-1.9579,-1.9539,-1.954,-1.954,-1.9564,0,-1.9767,-1.9753,-1.9728,-1.9723,-1.9713,-1.9684,-1.9678,-1.966,-1.9642,-1.9631,-1.9611,-1.9599,-1.958,-1.9572,-1.9571,-1.955,-1.956,-1.9548,-1.9536,-1.9535,-1.9544,-1.9583,-1.9597,-1.9621,-1.9567,-1.9567,-1.9567,0,-1.9789,-1.9773,-1.9768,-1.974,-1.9735,-1.973,-1.9712,-1.9702,-1.9681,-1.9668,-1.9655,-1.9633,-1.9626,-1.9608,-1.9598,-1.9591,-1.9585,-1.9574,-1.9574,-1.9573,-1.9554,-1.9585,-1.9627,-1.9632,-1.9571,-1.9571,-1.9571,0,-1.9827,-1.9803,-1.9798,-1.9788,-1.9755,-1.9753,-1.9739,-1.9717,-1.9708,-1.9692,-1.9686,-1.9669,-1.9661,-1.9649,-1.9624,-1.9613,-1.9618,-1.9597,-1.9608,-1.9609,-1.9612,-1.9612,-1.9656,-1.9605,-1.9605,-1.9605,-1.9605,0,-1.9854,-1.9852,-1.9814,-1.9811,-1.9809,-1.978,-1.9778,-1.9762,-1.9743,-1.9736,-1.9709,-1.9704,-1.967,-1.9661,-1.9642,-1.9638,-1.9634,-1.9624,-1.9619,-1.9628,-1.9629,-1.9624,-1.9622,-1.9606,-1.9605,-1.9605,-1.9605,0,-1.9896,-1.987,-1.9862,-1.9832,-1.9825,-1.9825,-1.9799,-1.9795,-1.9776,-1.9768,-1.9765,-1.9735,-1.9723,-1.9697,-1.9678,-1.9665,-1.9667,-1.9657,-1.9675,-1.9672,-1.9685,-1.9685,-1.9728,-1.9733,-1.9678,-1.9678,-1.9679,0,-1.9915,-1.9913,-1.9884,-1.9878,-1.9865,-1.9855,-1.9846,-1.9818,-1.981,-1.9787,-1.9786,-1.9772,-1.976,-1.9743,-1.972,-1.9706,-1.9696,-1.9712,-1.9694,-1.9703,-1.9699,-1.97,-1.9701,-1.9717,-1.9718,-1.9718,-1.9719,0,-1.9953,-1.9941,-1.993,-1.9914,-1.9905,-1.9891,-1.9875,-1.9872,-1.984,-1.9833,-1.9821,-1.9811,-1.9793,-1.978,-1.9763,-1.9749,-1.9729,-1.9725,-1.9727,-1.9736,-1.9747,-1.9744,-1.9688,-1.9724,-1.9724,-1.9723,-1.9723,-1.9723,-1.9986,-1.9984,-1.9963,-1.9952,-1.9937,-1.9924,-1.992,-1.9901,-1.989,-1.9873,-1.9857,-1.9847,-1.9828,-1.9803,-1.979,-1.9783,-1.9773,-1.9775,-1.9776,-1.9778,-1.9783,-1.9747,-1.9779,-1.9779,-1.9779,-1.9779,-1.9779,0,-2.0024,-2.001,-2.0,-1.998,-1.9971,-1.9953,-1.9936,-1.993,-1.9922,-1.9905,-1.9894,-1.9882,-1.987,-1.9846,-1.9833,-1.9831,-1.9822,-1.9829,-1.983,-1.9827,-1.9791,-1.9792,-1.9837,-1.9837,-1.9837,-1.9837,-1.9837,-1.9837,-2.0044,-2.004,-2.0026,-2.0016,-2.0001,-1.9992,-1.9984,-1.9972,-1.9959,-1.9946,-1.9936,-1.9921,-1.9902,-1.9887,-1.9876,-1.9869,-1.9867,-1.9877,-1.9868,-1.9835,-1.9829,-1.9824,-1.9825,-1.9876,-1.9876,-1.9904,-1.9905,-1.9905]},{"header":{"parameterUnit":"m.s-1","parameterCategory":1,"la1":30.2991,"la2":30.254,"lo1":-89.0895,"lo2":-89.0444,"dx":0.0017,"dy":0.0017,"nx":28,"ny":28,"refTime":"2023-02-06T15:00:00:Z","depth":0,"parameterNumber":3,"parameterNumberName":"V-component_of_WINDS"},"data":[0,0,0,0,0,0,0,0,0,0,0,0,0,0,0,0,0,0,0,0,0,0,0,0,0,0,0,0,0,0,0,0,0,0,0,0,0,0,0,0,0,0,0,0,0,0,0,0,0,0,0,0,0,0,0,0,0,0,0.2182,0.2181,0,0.2137,0.2136,0.2136,0.2168,0.217,0.2171,0.2173,0.2124,0.2122,0.2119,0,0,0,0,0,0,0,0,0,0,0,0,0,0.2295,0.2292,0.2182,0.2181,0.2181,0.2137,0.2136,0.2136,0.2168,0.217,0.2172,0.2173,0.2125,0.2122,0.2119,0,0,0,0,0,0,0,0,0,0,0,0,0,0.2247,0.2292,0.2182,0.2192,0.2192,0.2137,0.2136,0.2136,0.2168,0.217,0.2172,0.2174,0.2126,0.2122,0.2118,0.205,0,0,0.2106,0.2104,0,0,0,0,0,0,0,0,0.225,0.2243,0.2191,0.2191,0.2191,0.2161,0.2158,0.2107,0.2167,0.2177,0.2173,0.2175,0.2134,0.213,0.2117,0.2048,0.2046,0.2106,0.2103,0.2102,0.2101,0,0,0,0,0,0,0,0.2253,0.2245,0.2164,0.219,0.219,0.2198,0.2194,0.2149,0.2144,0.2176,0.2179,0.2173,0.2135,0.212,0.2116,0.2045,0.2106,0.2102,0.21,0.2098,0.1919,0.1917,0,0,0,0,0,0,0.2256,0.2248,0.2165,0.2163,0.2227,0.2194,0.2189,0.2168,0.2145,0.2143,0.2171,0.2175,0.2126,0.212,0.2114,0.2032,0.2102,0.2098,0.2096,0.1921,0.1918,0.1916,0,0,0,0,0,0,0.2258,0.2248,0.2167,0.2206,0.2196,0.219,0.2166,0.2166,0.2152,0.2141,0.214,0.2157,0.2127,0.212,0.2066,0.2031,0.2096,0.2093,0.1924,0.192,0.1917,0.1869,0,0,0,0,0,0,0.2261,0.2249,0.2223,0.2205,0.2194,0.212,0.2164,0.2164,0.2145,0.2149,0.2127,0.2126,0.2129,0.2072,0.2062,0.2027,0.209,0.1927,0.1922,0.1918,0.1873,0.1864,0.1856,0,0,0,0,0,0.2265,0.2211,0.2221,0.2211,0.2162,0.2118,0.2112,0.2117,0.2142,0.2116,0.2109,0.2126,0.2037,0.2066,0.2055,0.2018,0.1929,0.1924,0.1918,0.1877,0.1866,0.1856,0,0,0,0,0,0,0.2223,0.2208,0.222,0.2159,0.214,0.2124,0.2091,0.2104,0.2077,0.2082,0.2089,0.2084,0.2027,0.2018,0.2051,0.1951,0.1987,0.1979,0.1959,0.1948,0.194,0.1942,0.2086,0,0,0,0,0,0.2208,0.2174,0.2162,0.2109,0.2099,0.2097,0.2078,0.2084,0.2064,0.2056,0.2045,0.2024,0.1992,0.197,0.1939,0.1873,0.1868,0.1842,0.1834,0.1826,0.1819,0.1783,0.1771,0.1898,0.1898,0.1898,0,0,0.2173,0.2161,0.2139,0.2101,0.2086,0.2051,0.2089,0.205,0.2024,0.2049,0.1998,0.199,0.1967,0.1907,0.188,0.1897,0.1783,0.182,0.1814,0.181,0.1776,0.1764,0.1753,0.1894,0.1895,0.1896,0,0,0.2093,0.2081,0.2034,0.202,0.1999,0.1998,0.1987,0.1969,0.1965,0.1914,0.1932,0.1901,0.1845,0.1828,0.1812,0.1727,0.1741,0.1717,0.167,0.1634,0.1624,0.1615,0.1584,0.1572,0.171,0.171,0.1709,0,0.2052,0.2,0.2009,0.1968,0.1951,0.1974,0.1927,0.1912,0.1882,0.1868,0.1889,0.1819,0.1806,0.1742,0.1721,0.1708,0.1695,0.1718,0.1625,0.1616,0.1608,0.1578,0.1566,0.1707,0.1707,0.1707,0.1707,0,0.1951,0.1915,0.1881,0.1851,0.183,0.1786,0.1788,0.1765,0.1774,0.177,0.1718,0.1703,0.167,0.1656,0.1663,0.1592,0.1604,0.1625,0.166,0.1593,0.1564,0.1553,0.1702,0.1703,0.1704,0.1705,0,0,0.1841,0.1818,0.1805,0.1792,0.1771,0.1743,0.1701,0.1669,0.1649,0.1628,0.1592,0.1545,0.1564,0.1546,0.1552,0.1521,0.1453,0.1546,0.1545,0.1528,0.1373,0.1356,0.1343,0.1464,0.1462,0.146,0.1375,0,0.1758,0.1685,0.1692,0.1622,0.1588,0.1611,0.1574,0.1557,0.1553,0.1523,0.1519,0.1485,0.1514,0.1503,0.1474,0.1467,0.1422,0.1474,0.1429,0.1427,0.1432,0.1328,0.131,0.123,0.1364,0.1362,0.1361,0,0.1651,0.1627,0.1553,0.1538,0.1524,0.1491,0.1462,0.1434,0.1415,0.1415,0.1395,0.1407,0.1364,0.1402,0.1343,0.1378,0.136,0.1355,0.1352,0.1346,0.1388,0.1318,0.1204,0.1192,0.1343,0.1345,0.1346,0,0.1576,0.1525,0.1474,0.1463,0.1444,0.142,0.1411,0.1394,0.1375,0.135,0.1338,0.1308,0.1292,0.1269,0.1272,0.1299,0.121,0.1249,0.1208,0.1207,0.1186,0.1187,0.1066,0.1178,0.1178,0.1178,0.1178,0,0.1481,0.1435,0.144,0.1409,0.1358,0.1368,0.1317,0.131,0.1296,0.1263,0.1282,0.1251,0.1258,0.1227,0.1229,0.1179,0.1171,0.1169,0.117,0.1166,0.1166,0.1153,0.1158,0.1175,0.1176,0.1176,0.1177,0,0.1387,0.1389,0.1336,0.1323,0.1319,0.1281,0.127,0.124,0.1239,0.1198,0.1189,0.1186,0.1151,0.1152,0.1112,0.1114,0.1051,0.1059,0.1057,0.1058,0.1016,0.1019,0.0881,0.0863,0.0988,0.0987,0.0986,0,0.1325,0.1291,0.1275,0.1255,0.1244,0.1212,0.1192,0.1201,0.118,0.1156,0.1129,0.1096,0.1069,0.1012,0.1006,0.0975,0.0981,0.0935,0.0977,0.0974,0.0979,0.098,0.0976,0.0926,0.0925,0.0924,0.0923,0,0.1215,0.1218,0.119,0.1162,0.1139,0.1118,0.1098,0.108,0.1087,0.1062,0.1027,0.1006,0.0966,0.0932,0.0903,0.0893,0.0908,0.091,0.0899,0.0893,0.0893,0.0891,0.1033,0.0913,0.0914,0.0914,0.0915,0.0915,0.1134,0.1104,0.1088,0.1057,0.1043,0.1024,0.0996,0.0992,0.0963,0.0931,0.0938,0.0898,0.088,0.0843,0.0831,0.0799,0.0815,0.0799,0.0794,0.0789,0.0784,0.09,0.0794,0.0794,0.0794,0.0795,0.0795,0,0.1024,0.1015,0.0986,0.0958,0.0933,0.0952,0.0931,0.0908,0.0873,0.0856,0.083,0.079,0.0757,0.075,0.0718,0.0695,0.0701,0.0686,0.0686,0.0684,0.0772,0.0784,0.0681,0.0681,0.0681,0.0681,0.0681,0.0682,0.0963,0.0913,0.0914,0.0858,0.085,0.0811,0.0798,0.078,0.0767,0.0721,0.0695,0.069,0.0677,0.0645,0.0616,0.0615,0.0602,0.0584,0.0585,0.0666,0.0678,0.0688,0.07,0.0581,0.0581,0.0499,0.0498,0.0498]}]]